When you browse on this site, cookies collect data to enhance your experience and personalize the content and advertising you see.
Visit our Privacy Policy to learn more. By continuing to use the site, you agree to this use of cookies and data.
  • In Österreich
  • Länderverzeichnis
  • Für 7 Tage
  • Wassertemperatur
  • Wetterkarte
  • News
  • Widgets
  • user-avatar
    Anmelden

    Stündliche Wetter Bad Ischl

    Heute, 17 November, Sonntag

    Zeit Temperatur Niederschläge Wind Luftdruck Luftfeuchtigkeit
    00:00 +6°C° 0.1 mm 1 m/S 710 mmHg 94%
    01:00 +6°C° 0.1 mm 1 m/S 709 mmHg 94%
    02:00 +6°C° 0.3 mm 1 m/S 709 mmHg 95%
    03:00 +6°C° 0.3 mm 1 m/S 708 mmHg 95%
    04:00 +6°C° 0.3 mm 1 m/S 707 mmHg 96%
    05:00 +6°C° 0.2 mm 1 m/S 707 mmHg 96%
    06:00 +5°C° 0.2 mm 2 m/S 707 mmHg 95%
    07:00 +6°C° 0.2 mm 2 m/S 706 mmHg 95%
    08:00 +7°C° 0.1 mm 2 m/S 706 mmHg 93%
    09:00 +8°C° 0.1 mm 2 m/S 706 mmHg 91%
    10:00 +9°C° 0.1 mm 2 m/S 706 mmHg 88%
    11:00 +10°C° 0 mm 2 m/S 706 mmHg 86%
    12:00 +10°C° 0 mm 3 m/S 706 mmHg 85%
    13:00 +11°C° 0 mm 3 m/S 705 mmHg 83%
    14:00 +10°C° 0.1 mm 2 m/S 705 mmHg 86%
    15:00 +9°C° 0.1 mm 2 m/S 704 mmHg 89%
    16:00 +9°C° 0.1 mm 2 m/S 704 mmHg 93%
    17:00 +8°C° 0.8 mm 2 m/S 704 mmHg 93%
    18:00 +8°C° 0.8 mm 2 m/S 704 mmHg 94%
    19:00 +8°C° 0.8 mm 3 m/S 703 mmHg 94%
    20:00 +8°C° 0.5 mm 3 m/S 704 mmHg 94%
    21:00 +8°C° 0.5 mm 2 m/S 704 mmHg 94%
    22:00 +7°C° 0.5 mm 2 m/S 704 mmHg 94%
    23:00 +7°C° 0.2 mm 2 m/S 704 mmHg 95%

    Morgen, 18 November, Montag

    Zeit Temperatur Niederschläge Wind Luftdruck Luftfeuchtigkeit
    00:00 +7°C° 0.2 mm 2 m/S 704 mmHg 95%
    01:00 +6°C° 0.2 mm 2 m/S 704 mmHg 95%
    02:00 +7°C° 0 mm 1 m/S 704 mmHg 95%
    03:00 +7°C° 0 mm 1 m/S 704 mmHg 95%
    04:00 +7°C° 0 mm 1 m/S 705 mmHg 95%
    05:00 +7°C° 0 mm 1 m/S 705 mmHg 95%
    06:00 +7°C° 0 mm 1 m/S 705 mmHg 94%
    07:00 +6°C° 0 mm 1 m/S 706 mmHg 94%
    08:00 +7°C° 0 mm 1 m/S 706 mmHg 92%
    09:00 +7°C° 0 mm 1 m/S 707 mmHg 90%
    10:00 +7°C° 0 mm 1 m/S 707 mmHg 89%
    11:00 +8°C° 0 mm 1 m/S 708 mmHg 86%
    12:00 +8°C° 0 mm 1 m/S 708 mmHg 83%
    13:00 +9°C° 0 mm 1 m/S 708 mmHg 80%
    14:00 +8°C° 0 mm 1 m/S 708 mmHg 83%
    15:00 +7°C° 0 mm 1 m/S 709 mmHg 85%
    16:00 +7°C° 0 mm 1 m/S 709 mmHg 88%
    17:00 +6°C° 0 mm 1 m/S 709 mmHg 89%
    18:00 +5°C° 0 mm 1 m/S 710 mmHg 90%
    19:00 +4°C° 0 mm 1 m/S 710 mmHg 91%
    20:00 +4°C° 0 mm 1 m/S 710 mmHg 91%
    21:00 +4°C° 0 mm 1 m/S 710 mmHg 90%
    22:00 +3°C° 0 mm 1 m/S 710 mmHg 90%
    23:00 +4°C° 0 mm 1 m/S 710 mmHg 90%

    übermorgen, 19 November, Dienstag

    Zeit Temperatur Niederschläge Wind Luftdruck Luftfeuchtigkeit
    00:00 +3°C° 0 mm 2 m/S 710 mmHg 90%
    01:00 +3°C° 0 mm 2 m/S 710 mmHg 90%
    02:00 +3°C° 0 mm 2 m/S 709 mmHg 90%
    03:00 +4°C° 0 mm 1 m/S 709 mmHg 91%
    04:00 +4°C° 0 mm 1 m/S 709 mmHg 92%
    05:00 +4°C° 0 mm 1 m/S 709 mmHg 92%
    06:00 +4°C° 0 mm 1 m/S 709 mmHg 93%
    07:00 +4°C° 0 mm 1 m/S 709 mmHg 93%
    08:00 +5°C° 0 mm 1 m/S 709 mmHg 90%
    09:00 +6°C° 0 mm 1 m/S 710 mmHg 86%
    10:00 +8°C° 0 mm 1 m/S 710 mmHg 82%
    11:00 +8°C° 0.1 mm 1 m/S 710 mmHg 82%
    12:00 +8°C° 0.1 mm 1 m/S 710 mmHg 83%
    13:00 +8°C° 0.1 mm 1 m/S 709 mmHg 83%
    14:00 +8°C° 0.2 mm 1 m/S 709 mmHg 87%
    15:00 +7°C° 0.2 mm 1 m/S 709 mmHg 91%
    16:00 +6°C° 0.2 mm 1 m/S 709 mmHg 95%
    17:00 +6°C° 0.1 mm 1 m/S 709 mmHg 95%
    18:00 +6°C° 0.1 mm 1 m/S 709 mmHg 96%
    19:00 +5°C° 0.1 mm 0 m/S 709 mmHg 96%
    20:00 +5°C° 0 mm 0 m/S 709 mmHg 96%
    21:00 +6°C° 0 mm 1 m/S 710 mmHg 96%
    22:00 +6°C° 0 mm 1 m/S 710 mmHg 97%
    23:00 +6°C° 0.1 mm 1 m/S 710 mmHg 97%

    20 November, Mittwoch

    Zeit Temperatur Niederschläge Wind Luftdruck Luftfeuchtigkeit
    00:00 +6°C° 0.1 mm 1 m/S 710 mmHg 97%
    01:00 +5°C° 0.1 mm 1 m/S 710 mmHg 97%
    02:00 +5°C° 0.3 mm 1 m/S 711 mmHg 97%
    03:00 +5°C° 0.3 mm 1 m/S 711 mmHg 97%
    04:00 +5°C° 0.3 mm 1 m/S 711 mmHg 98%
    05:00 +4°C° 0.2 mm 1 m/S 711 mmHg 97%
    06:00 +4°C° 0.2 mm 1 m/S 712 mmHg 97%
    07:00 +4°C° 0.2 mm 1 m/S 712 mmHg 97%
    08:00 +5°C° 0 mm 1 m/S 712 mmHg 94%
    09:00 +5°C° 0 mm 1 m/S 712 mmHg 90%
    10:00 +6°C° 0 mm 1 m/S 713 mmHg 87%
    11:00 +7°C° 0 mm 1 m/S 713 mmHg 83%
    12:00 +8°C° 0 mm 1 m/S 713 mmHg 80%
    13:00 +9°C° 0 mm 1 m/S 713 mmHg 76%
    14:00 +8°C° 0 mm 1 m/S 712 mmHg 81%
    15:00 +7°C° 0 mm 1 m/S 712 mmHg 85%
    16:00 +6°C° 0 mm 1 m/S 712 mmHg 89%
    17:00 +5°C° 0 mm 1 m/S 712 mmHg 89%
    18:00 +5°C° 0 mm 1 m/S 713 mmHg 89%
    19:00 +3°C° 0 mm 2 m/S 713 mmHg 89%
    20:00 +2°C° 0 mm 2 m/S 713 mmHg 87%
    21:00 +2°C° 0 mm 2 m/S 713 mmHg 85%
    22:00 +2°C° 0 mm 2 m/S 713 mmHg 82%
    23:00 +2°C° 0 mm 2 m/S 713 mmHg 81%

    21 November, Donnerstag

    Zeit Temperatur Niederschläge Wind Luftdruck Luftfeuchtigkeit
    00:00 +1°C° 0 mm 2 m/S 712 mmHg 79%
    01:00 +1°C° 0 mm 2 m/S 712 mmHg 78%
    02:00 +1°C° 0 mm 2 m/S 712 mmHg 77%
    03:00 +1°C° 0 mm 2 m/S 711 mmHg 77%
    04:00 +1°C° 0 mm 2 m/S 711 mmHg 76%
    05:00 +1°C° 0 mm 2 m/S 711 mmHg 76%
    06:00 +1°C° 0 mm 2 m/S 710 mmHg 76%
    07:00 +1°C° 0 mm 2 m/S 710 mmHg 75%
    08:00 +2°C° 0 mm 2 m/S 710 mmHg 73%
    09:00 +4°C° 0 mm 2 m/S 710 mmHg 71%
    10:00 +5°C° 0 mm 2 m/S 710 mmHg 69%
    11:00 +7°C° 0 mm 1 m/S 710 mmHg 69%
    12:00 +7°C° 0 mm 1 m/S 710 mmHg 69%
    13:00 +8°C° 0 mm 1 m/S 709 mmHg 68%
    14:00 +7°C° 0 mm 1 m/S 709 mmHg 74%
    15:00 +6°C° 0 mm 1 m/S 709 mmHg 79%
    16:00 +5°C° 0 mm 1 m/S 709 mmHg 85%
    17:00 +5°C° 0 mm 1 m/S 709 mmHg 85%
    18:00 +3°C° 0 mm 2 m/S 709 mmHg 86%
    19:00 +2°C° 0 mm 2 m/S 710 mmHg 86%
    20:00 +2°C° 0 mm 2 m/S 710 mmHg 85%
    21:00 +2°C° 0 mm 2 m/S 710 mmHg 84%
    22:00 +2°C° 0 mm 2 m/S 710 mmHg 83%
    23:00 +2°C° 0 mm 2 m/S 711 mmHg 84%

    22 November, Freitag

    Zeit Temperatur Niederschläge Wind Luftdruck Luftfeuchtigkeit
    00:00 +2°C° 0 mm 2 m/S 711 mmHg 84%
    01:00 +2°C° 0 mm 2 m/S 711 mmHg 85%
    02:00 +2°C° 0 mm 2 m/S 711 mmHg 86%
    03:00 +2°C° 0 mm 2 m/S 711 mmHg 86%
    04:00 +2°C° 0 mm 2 m/S 711 mmHg 87%
    05:00 +2°C° 0 mm 2 m/S 711 mmHg 87%
    06:00 +2°C° 0 mm 2 m/S 711 mmHg 88%
    07:00 +2°C° 0 mm 2 m/S 711 mmHg 88%
    08:00 +4°C° 0 mm 2 m/S 711 mmHg 84%
    09:00 +6°C° 0 mm 2 m/S 711 mmHg 80%
    10:00 +7°C° 0 mm 2 m/S 711 mmHg 76%
    11:00 +8°C° 0 mm 2 m/S 711 mmHg 75%
    12:00 +9°C° 0 mm 2 m/S 710 mmHg 75%
    13:00 +10°C° 0 mm 2 m/S 710 mmHg 74%
    14:00 +9°C° 0 mm 2 m/S 710 mmHg 79%
    15:00 +8°C° 0 mm 3 m/S 709 mmHg 84%
    16:00 +5°C° 0 mm 3 m/S 709 mmHg 89%
    17:00 +5°C° 0 mm 3 m/S 709 mmHg 89%
    18:00 +4°C° 0 mm 3 m/S 709 mmHg 89%
    19:00 +4°C° 0 mm 3 m/S 709 mmHg 89%
    20:00 +4°C° 0 mm 3 m/S 709 mmHg 89%
    21:00 +4°C° 0 mm 3 m/S 709 mmHg 89%
    22:00 +4°C° 0 mm 3 m/S 709 mmHg 89%
    23:00 +4°C° 0 mm 3 m/S 709 mmHg 89%
    Mehr zeigen